EWG5594 ENZV-ENBR

Flight info

Callsign EWG5594
Flight time 0h 27m
Altitude 16000
Route ALUVA
Aircraft A320/M-SDE3FGHIRWY/LB1

Departure

Time 2026-05-06 18:24
Airport Stavanger Airport, Sola (ENZV)

Arrival

Time 2026-05-06 18:51
Airport Bergen Airport, Flesland (ENBR)
Time Latitude Longitude Altitude Speed Heading
2026-05-06 18:08 58.88163 5.63064 36 ft 0 kts 315°
2026-05-06 18:15 58.88161 5.63068 36 ft 2 kts 315°
2026-05-06 18:15 58.88148 5.63093 36 ft 3 kts 315°
2026-05-06 18:15 58.88133 5.63121 36 ft 3 kts 315°
2026-05-06 18:15 58.88119 5.63148 34 ft 3 kts 315°
2026-05-06 18:16 58.88105 5.63176 37 ft 3 kts 315°
2026-05-06 18:16 58.88090 5.63203 34 ft 3 kts 315°
2026-05-06 18:16 58.88082 5.63219 37 ft 2 kts 315°
2026-05-06 18:16 58.88081 5.63222 37 ft 0 kts 315°
2026-05-06 18:18 58.88085 5.63212 37 ft 3 kts 311°
2026-05-06 18:18 58.88084 5.63183 33 ft 2 kts 221°
2026-05-06 18:19 58.88076 5.63177 35 ft 2 kts 193°
2026-05-06 18:19 58.88047 5.63213 37 ft 9 kts 137°
2026-05-06 18:19 58.87996 5.63332 38 ft 12 kts 127°
2026-05-06 18:19 58.87928 5.63353 38 ft 10 kts 201°
2026-05-06 18:20 58.87864 5.63304 39 ft 13 kts 202°
2026-05-06 18:20 58.87755 5.63291 40 ft 16 kts 178°
2026-05-06 18:20 58.87648 5.63295 39 ft 16 kts 179°
2026-05-06 18:20 58.87544 5.63299 40 ft 14 kts 179°
2026-05-06 18:21 58.87453 5.63300 41 ft 12 kts 180°
2026-05-06 18:21 58.87332 5.63305 42 ft 24 kts 179°
2026-05-06 18:21 58.87172 5.63308 41 ft 22 kts 179°
2026-05-06 18:21 58.87043 5.63333 43 ft 16 kts 157°
2026-05-06 18:22 58.86998 5.63494 44 ft 14 kts 83°
2026-05-06 18:22 58.87036 5.63654 44 ft 13 kts 63°
2026-05-06 18:22 58.87086 5.63794 42 ft 11 kts 27°
2026-05-06 18:22 58.87113 5.63800 43 ft 1 kts
2026-05-06 18:23 58.87137 5.63801 43 ft 14 kts
2026-05-06 18:23 58.87498 5.63781 43 ft 88 kts 358°
2026-05-06 18:23 58.88322 5.63760 50 ft 145 kts
2026-05-06 18:23 58.89396 5.63751 540 ft 155 kts 356°
2026-05-06 18:24 58.90467 5.63703 1448 ft 155 kts 357°
2026-05-06 18:24 58.91596 5.63646 1976 ft 175 kts 357°
2026-05-06 18:24 58.92903 5.63564 2397 ft 202 kts 356°
2026-05-06 18:24 58.94411 5.63454 2836 ft 232 kts 356°
2026-05-06 18:25 58.96064 5.63339 3656 ft 244 kts 358°
2026-05-06 18:25 58.97813 5.63286 4467 ft 257 kts 359°
2026-05-06 18:25 58.99581 5.63269 5671 ft 252 kts 356°
2026-05-06 18:25 59.01281 5.62472 6676 ft 254 kts 332°
2026-05-06 18:26 59.02705 5.60412 7625 ft 258 kts 318°
2026-05-06 18:26 59.04059 5.58086 8590 ft 261 kts 317°
2026-05-06 18:26 59.05422 5.55730 9541 ft 265 kts 317°
2026-05-06 18:26 59.06811 5.53324 10371 ft 273 kts 316°
2026-05-06 18:27 59.08286 5.50763 10714 ft 296 kts 316°
2026-05-06 18:27 59.09864 5.48022 10999 ft 319 kts 316°
2026-05-06 18:27 59.11544 5.45113 11562 ft 330 kts 316°
2026-05-06 18:27 59.13277 5.42122 12348 ft 334 kts 315°
2026-05-06 18:28 59.15024 5.39103 13170 ft 337 kts 315°
2026-05-06 18:28 59.16787 5.36048 13975 ft 340 kts 314°
2026-05-06 18:28 59.18558 5.32972 14683 ft 343 kts 314°
2026-05-06 18:28 59.20334 5.29881 15386 ft 346 kts 314°
2026-05-06 18:29 59.22140 5.26732 15911 ft 348 kts 314°
2026-05-06 18:29 59.23950 5.23577 16036 ft 353 kts 313°
2026-05-06 18:29 59.25837 5.20272 16060 ft 374 kts 314°
2026-05-06 18:29 59.27777 5.16862 16057 ft 383 kts 314°
2026-05-06 18:30 59.29768 5.13367 16061 ft 384 kts 314°
2026-05-06 18:30 59.31757 5.09873 16057 ft 384 kts 314°
2026-05-06 18:30 59.33744 5.06376 16057 ft 384 kts 314°
2026-05-06 18:30 59.35734 5.02883 16083 ft 385 kts 315°
2026-05-06 18:31 59.37927 4.99825 16082 ft 391 kts 325°
2026-05-06 18:31 59.40418 4.97597 16081 ft 397 kts 336°
2026-05-06 18:31 59.43129 4.96323 16079 ft 405 kts 347°
2026-05-06 18:31 59.45948 4.95826 16081 ft 407 kts 350°
2026-05-06 18:32 59.48774 4.95379 16082 ft 407 kts 349°
2026-05-06 18:32 59.51600 4.94928 16121 ft 407 kts 349°
2026-05-06 18:32 59.54424 4.94469 16111 ft 407 kts 349°
2026-05-06 18:32 59.57242 4.94005 16106 ft 406 kts 349°
2026-05-06 18:33 59.60056 4.93537 16096 ft 405 kts 349°
2026-05-06 18:33 59.62866 4.93070 16090 ft 405 kts 349°
2026-05-06 18:33 59.65679 4.92607 16085 ft 405 kts 349°
2026-05-06 18:33 59.68455 4.92149 16080 ft 405 kts 349°
2026-05-06 18:34 59.71290 4.91681 16077 ft 405 kts 349°
2026-05-06 18:34 59.74107 4.91218 16074 ft 404 kts 349°
2026-05-06 18:34 59.76912 4.90753 16068 ft 404 kts 349°
2026-05-06 18:34 59.79678 4.90226 16107 ft 403 kts 347°
2026-05-06 18:35 59.82487 4.89518 16094 ft 401 kts 346°
2026-05-06 18:35 59.85213 4.88720 16090 ft 400 kts 345°
2026-05-06 18:35 59.87962 4.87871 16086 ft 399 kts 345°
2026-05-06 18:35 59.90713 4.87019 16083 ft 399 kts 345°
2026-05-06 18:36 59.93413 4.86211 15832 ft 386 kts 345°
2026-05-06 18:36 59.96061 4.85438 14800 ft 380 kts 346°
2026-05-06 18:36 59.98464 4.84759 14399 ft 360 kts 346°
2026-05-06 18:36 60.00943 4.84062 13863 ft 356 kts 346°
2026-05-06 18:37 60.03396 4.83360 13268 ft 351 kts 346°
2026-05-06 18:37 60.05804 4.82664 12680 ft 347 kts 347°
2026-05-06 18:37 60.08178 4.81977 12114 ft 342 kts 347°
2026-05-06 18:37 60.10488 4.81313 11533 ft 328 kts 348°
2026-05-06 18:38 60.12668 4.80688 11282 ft 303 kts 348°
2026-05-06 18:38 60.14672 4.80113 11036 ft 282 kts 348°
2026-05-06 18:38 60.16563 4.79564 10714 ft 277 kts 348°
2026-05-06 18:38 60.18473 4.79003 10457 ft 277 kts 348°
2026-05-06 18:39 60.20379 4.78441 10193 ft 275 kts 348°
2026-05-06 18:39 60.22275 4.77884 9972 ft 274 kts 349°
2026-05-06 18:39 60.24146 4.77337 9835 ft 274 kts 349°
2026-05-06 18:40 60.27925 4.76234 9561 ft 273 kts 349°
2026-05-06 18:40 60.29805 4.75686 9412 ft 273 kts 349°
2026-05-06 18:40 60.31684 4.75139 9281 ft 272 kts 349°
2026-05-06 18:40 60.33568 4.74588 8839 ft 277 kts 349°
2026-05-06 18:41 60.35479 4.74026 8470 ft 270 kts 349°
2026-05-06 18:41 60.37215 4.73524 8332 ft 248 kts 349°
2026-05-06 18:41 60.38871 4.73043 8135 ft 232 kts 349°
2026-05-06 18:41 60.40494 4.72481 8037 ft 236 kts 341°
2026-05-06 18:42 60.42044 4.71389 7975 ft 236 kts 336°
2026-05-06 18:42 60.43593 4.70247 7918 ft 236 kts 337°
2026-05-06 18:42 60.45150 4.69135 7824 ft 237 kts 341°
2026-05-06 18:42 60.46788 4.68606 7693 ft 240 kts 355°
2026-05-06 18:43 60.48441 4.68626 7561 ft 240 kts 357°
2026-05-06 18:43 60.50108 4.68993 7390 ft 244 kts 15°
2026-05-06 18:43 60.51558 4.70773 7129 ft 247 kts 45°
2026-05-06 18:43 60.52423 4.73708 6874 ft 249 kts 74°
2026-05-06 18:44 60.52508 4.77180 6618 ft 247 kts 103°
2026-05-06 18:44 60.52012 4.80518 6361 ft 247 kts 109°
2026-05-06 18:44 60.51487 4.83826 6091 ft 246 kts 109°
2026-05-06 18:44 60.50961 4.87132 5824 ft 245 kts 109°
2026-05-06 18:45 60.50439 4.90413 5556 ft 244 kts 109°
2026-05-06 18:45 60.49926 4.93637 5294 ft 242 kts 109°
2026-05-06 18:45 60.49408 4.96897 5036 ft 241 kts 108°
2026-05-06 18:45 60.49068 4.99045 4856 ft 240 kts 108°
2026-05-06 18:46 60.48477 5.03431 4400 ft 243 kts 100°
2026-05-06 18:46 60.48176 5.06829 4054 ft 240 kts 100°
2026-05-06 18:46 60.47885 5.10084 3916 ft 230 kts 100°
2026-05-06 18:46 60.47526 5.13126 3769 ft 219 kts 116°
2026-05-06 18:47 60.46590 5.15459 3534 ft 213 kts 148°
2026-05-06 18:47 60.45230 5.16471 3273 ft 207 kts 172°
2026-05-06 18:47 60.43804 5.16944 2981 ft 208 kts 173°
2026-05-06 18:47 60.42367 5.17419 2672 ft 210 kts 173°
2026-05-06 18:48 60.40932 5.17902 2421 ft 206 kts 172°
2026-05-06 18:48 60.39563 5.18366 2106 ft 192 kts 172°
2026-05-06 18:48 60.38309 5.18792 1839 ft 178 kts 173°
2026-05-06 18:48 60.37122 5.19193 1602 ft 168 kts 174°
2026-05-06 18:49 60.35987 5.19576 1366 ft 161 kts 173°
2026-05-06 18:49 60.34929 5.19933 1146 ft 148 kts 173°
2026-05-06 18:49 60.33935 5.20268 936 ft 141 kts 172°
2026-05-06 18:49 60.32987 5.20591 743 ft 135 kts 171°
2026-05-06 18:50 60.32064 5.20901 550 ft 136 kts 171°
2026-05-06 18:50 60.31136 5.21206 365 ft 134 kts 171°
2026-05-06 18:50 60.30216 5.21523 196 ft 132 kts 170°
2026-05-06 18:50 60.29402 5.21792 156 ft 92 kts 170°
2026-05-06 18:51 60.29061 5.21912 152 ft 20 kts 170°
2026-05-06 18:51 60.28922 5.22018 149 ft 26 kts 113°
2026-05-06 18:51 60.28921 5.22177 150 ft 0 kts 79°
2026-05-06 18:52 60.28923 5.22193 150 ft 0 kts 79°
2026-05-06 18:53 60.28930 5.22266 151 ft 0 kts 79°
2026-05-06 18:53 60.28930 5.22267 151 ft 0 kts 79°
2026-05-06 18:53 60.28935 5.22338 151 ft 11 kts 94°
2026-05-06 18:53 60.28884 5.22412 150 ft 9 kts 175°
2026-05-06 18:54 60.28869 5.22417 150 ft 0 kts 171°
2026-05-06 18:54 60.28868 5.22417 150 ft 0 kts 171°
2026-05-06 18:54 60.28863 5.22419 150 ft 0 kts 169°
2026-05-06 18:55 60.28862 5.22419 150 ft 0 kts 169°
2026-05-06 18:55 60.28823 5.22434 150 ft 8 kts 169°
2026-05-06 18:56 60.28768 5.22454 149 ft 8 kts 169°
2026-05-06 18:56 60.28719 5.22472 149 ft 8 kts 169°
2026-05-06 18:56 60.28668 5.22490 148 ft 7 kts 170°
2026-05-06 18:56 60.28629 5.22531 148 ft 5 kts 111°
2026-05-06 18:57 60.28643 5.22596 148 ft 5 kts 59°
2026-05-06 18:57 60.28653 5.22650 148 ft 4 kts 70°
2026-05-06 18:57 60.28659 5.22696 148 ft 3 kts 76°
2026-05-06 18:57 60.28664 5.22734 148 ft 2 kts 76°
2026-05-06 18:58 60.28671 5.22751 148 ft 2 kts 22°
2026-05-06 18:58 60.28699 5.22813 149 ft 10 kts 91°
2026-05-06 18:58 60.28693 5.22901 148 ft 0 kts 74°